Location: Gaast
(52.9002°N, 5.8891°E)
Time: 09:55:58
(UTC+00:00)

COSMO-SKYMED 1 - Pass Details

Date: 18 November 2025
Orbit: 579 x 581 km, 97.9° (Epoch: 11 December)

Event Time Altitude Azimuth Distance (km) Brightness Sun altitude
Exits shadow 19:02:52 31° 263° (W) 1,034 4.2 -30.5°
Drops below altitude 10° 19:05:38 10° 228° (SW) 1,895 5.5 -31.0°
Sets 19:07:53 0° 220° (SW) 2,790 6.3 -31.3°
